Location: Home
(42.5358°N, 72.7383°W)
Time: 04:37:37
(UTC-04:00)

Vanguard 1 - Pass Details

Date: 30 May 2022
Orbit: 649 x 3832 km, 34.2° (Epoch: 24 June)

Event Time Altitude Azimuth Distance (km) Brightness Sun altitude
Rises 04:29:18 0° 270° (W) 5,962 13.6 -8.0°
Reaches altitude 10° 04:32:38 10° 267° (W) 5,295 13.3 -7.5°
Maximum altitude 04:49:45 63° 192° (SSW) 3,806 12.8 -5.0°
Drops below altitude 10° 05:12:49 10° 118° (ESE) 6,835 14.8 -1.5°
Sets 05:17:54 0° 116° (ESE) 7,696 15.1 -0.7°
